Regional Weather Roundup
Issued by NWS

Home | Current Version | Previous Version | Text Only | Print | Product List | Glossary On
Versions: 1 2 3 4 5 6 7 8 9 10 11 12 13 14 15 16 17 18 19 20 21 22 23 24 25 26 27 28 29 30 31 32 33 34 35 36 37 38 39 40 41 42 43 44 45 46 47 48 49 50
000
ASUS43 KDTX 310401
RWRMI
MICHIGAN HOURLY REGIONAL WEATHER ROUNDUP
NATIONAL WEATHER SERVICE DETROIT/PONTIAC MI
1200 AM EDT FRI OCT 31 2014

NOTE: "FAIR" INDICATES FEW OR NO CLOUDS BELOW 12,000 FEET WITH NO
SIGNIFICANT WEATHER AND/OR OBSTRUCTION TO VISIBILITY.

MIZ047>049-052>055-059>063-066>070-074>076-081>083-310500-
SOUTHEAST LOWER MICHIGAN

CITY           SKY/WX    TMP DP  RH WIND       PRES   REMARKS
ADRIAN         CLOUDY    44  36  73 SW5       30.02F
ALMA           CLOUDY    43  37  79 SW5       29.98F
ANN ARBOR      CLOUDY    45  35  68 SW6       30.01F
BAD AXE        CLOUDY    43  41  93 SW6       29.97F
CARO           CLOUDY    43  40  90 CALM      29.97F
DETROIT CITY   CLOUDY    49  36  61 SW9       30.01F
DETROIT        CLOUDY    46  37  71 S8        30.02F
FLINT          CLOUDY    47  37  68 SW5       30.00F
GROSSE ILE     CLOUDY    46  37  71 SW6       30.01F
HILLSDALE      CLOUDY    44  37  76 SW3       30.01S
HOWELL         CLOUDY    44  37  75 SW3       29.99F

CITY           SKY/WX    TMP DP  RH WIND       PRES   REMARKS
JACKSON        CLOUDY    44  36  73 SW5       30.00F
LAMBERTVILLE   CLOUDY    46  36  66 SW3       30.03F
LANSING        CLOUDY    43  36  76 SW6       30.00F
LAPEER         CLOUDY    44  38  79 SW5       29.99F
MASON          CLOUDY    44  36  74 CALM      29.99F
MONROE         CLOUDY    46  37  71 CALM      30.01F
MT. CLEMENS    CLOUDY    47  37  69 SW6       29.98F
PONTIAC        CLOUDY    45  36  70 SW6       29.99F
PORT HOPE        N/A     44  40  85 VRB3      29.94F
PORT HURON     CLOUDY    43  39  87 CALM      30.00F
TRI CITIES     CLOUDY    44  38  79 SW6       29.98F
TROY           CLOUDY    47  35  62 SW6       30.02F
SAGINAW HB     CLOUDY    45  37  76 SW6       29.97F
$$
MIZ043>046-050>051-056>058-064>065-071>073-077>080-310500-
SOUTHWEST LOWER MICHIGAN

CITY           SKY/WX    TMP DP  RH WIND       PRES   REMARKS
BATTLE CREEK   CLOUDY    45  36  70 SW6       30.00F
BENTON HARBOR  CLOUDY    49  38  65 W5        30.01F
BIG RAPIDS     CLOUDY    42  40  89 SW5       29.95F
COLDWATER      CLOUDY    45  38  77 CALM      30.01F
FREMONT        CLOUDY    42  38  86 S3        29.97F
HOLLAND        CLOUDY    50  37  61 W6        30.00F
GRAND RAPIDS   CLOUDY    45  39  79 SW7       29.99F
IONIA          CLOUDY    44  38  78 SW5       29.98F
KALAMAZOO      CLOUDY    45  36  70 SW6       30.00F
LUDINGTON      DRIZZLE   47  38  72 NW6       29.96F
MARSHALL       CLOUDY    43  36  75 S8        29.99F
MOUNT PLEASANT CLOUDY    43  36  77 SW5       29.96F
MUSKEGON       CLOUDY    50  37  61 W10       29.98F
SOUTH HAVEN    CLOUDY    51  38  60 W6        30.00F
$$
MIZ016>042-310500-
NORTHERN LOWER MICHIGAN

CITY           SKY/WX    TMP DP  RH WIND       PRES   REMARKS
ALPENA         LGT RAIN  41  40  96 S5        29.92F
BEAVER ISLAND  RAIN      42  39  90 NW5       29.93F
BELLAIRE       MIX PCPN  43  40  91 CALM      29.94F
CADILLAC       CLOUDY    40  37  89 SW3       29.93F
CHARLEVOIX     LGT RAIN  42  38  87 NW8       29.95F
FRANKFORT      RAIN      42  39  89 NW8       29.95S
GAYLORD        LGT RAIN  39  38  96 W5        29.91F
GRAYLING       CLOUDY    40  39  94 W5        29.93F
HARBOR SPRINGS LGT RAIN  40  38  91 NW5       29.92F
HOUGHTON LAKE  CLOUDY    42  38  85 SW8       29.94F
MANISTEE       CLOUDY    46  34  61 NW14      29.96F
OSCODA         DRIZZLE   42  42  98 SW5       29.94F
PELLSTON       LGT RAIN  41  39  93 W5        29.92F
ROGERS CITY    CLOUDY    41  41 100 SW6       29.92F
TRAVERSE CITY  CLOUDY    43  38  82 S3        29.93F
$$
MIZ007>008-015-310500-
EASTERN UPPER MICHIGAN

CITY           SKY/WX    TMP DP  RH WIND       PRES   REMARKS
KINROSS        CLOUDY    39  39 100 W5        29.91S
MACKINAC ISLAN LGT RAIN  40  39  97 NW8       29.91F WCI  34
NEWBERRY       LGT RAIN  37  36  96 N10       29.92S WCI  29
S. S. MARIE    LGT RAIN  39  36  89 VRB5      29.90F
MUNISING         N/A     43  38  82 N12       29.95S
$$
MIZ004>006-011>014-085-310500-
CENTRAL UPPER MICHIGAN

CITY           SKY/WX    TMP DP  RH WIND       PRES   REMARKS
MANISTIQUE     DRIZZLE   39  38  97 NW6       29.93F WCI  34
ESCANABA       CLOUDY    39  34  81 NW9       29.95F WCI  33
MENOMINEE      CLOUDY    41  30  65 NW6       29.98F
SAWYER-GWINN   FLURRIES  34  32  92 N16G22    29.97S WCI  24
$$
MIZ001>003-009>011-084-310500-
WESTERN UPPER MICHIGAN

CITY           SKY/WX    TMP DP  RH WIND       PRES   REMARKS
IRON MOUNTAIN  LGT RAIN  36  31  82 NW14      29.99R WCI  27
HOUGHTON       LGT SNOW  32  29  88 N22G38    30.09R VSB 1   WCI  19
COPPER HARBOR    N/A     37  34  89 NE35G43   30.08R WCI  24
IRONWOOD       CLOUDY    30  28  93 N17G29    30.14R WCI  18
$$

ABBREVIATIONS USED IN REMARKS
   TC - TEMPERATURE IN CELSIUS
  WCI - WIND CHILL INDEX
   HX - HEAT INDEX
  VSB - VISIBILITY




USA.gov is the U.S. government's official web portal to all federal, state and local government web resources and services.